Stündliche Wetter Kyushnur

Heute, 18 Mai, Dienstag

Zeit Temperatur Niederschläge Wind Luftdruck Luftfeuchtigkeit
00:00 +17°C° 0.2 mm 2 m/S 752 mmHg 87%
01:00 +17°C° 0 mm 2 m/S 751 mmHg 87%
02:00 +17°C° 0 mm 2 m/S 751 mmHg 88%
03:00 +16°C° 0 mm 2 m/S 751 mmHg 86%
04:00 +17°C° 0 mm 2 m/S 751 mmHg 83%
05:00 +18°C° 0 mm 2 m/S 751 mmHg 80%
06:00 +18°C° 0 mm 2 m/S 751 mmHg 78%
07:00 +20°C° 0.2 mm 2 m/S 751 mmHg 72%
08:00 +23°C° 0.2 mm 2 m/S 752 mmHg 66%
09:00 +24°C° 0.2 mm 3 m/S 752 mmHg 60%
10:00 +26°C° 0 mm 3 m/S 752 mmHg 56%
11:00 +27°C° 0 mm 3 m/S 752 mmHg 51%
12:00 +28°C° 0 mm 3 m/S 752 mmHg 47%
13:00 +28°C° 0 mm 3 m/S 752 mmHg 46%
14:00 +29°C° 0 mm 4 m/S 752 mmHg 46%
15:00 +29°C° 0 mm 4 m/S 751 mmHg 45%
16:00 +28°C° 0 mm 4 m/S 751 mmHg 50%
17:00 +27°C° 0 mm 4 m/S 751 mmHg 55%
18:00 +25°C° 0 mm 4 m/S 751 mmHg 60%
19:00 +23°C° 0 mm 4 m/S 751 mmHg 64%
20:00 +21°C° 0 mm 3 m/S 751 mmHg 68%
21:00 +19°C° 0 mm 3 m/S 751 mmHg 72%
22:00 +18°C° 0 mm 3 m/S 751 mmHg 71%
23:00 +18°C° 0 mm 3 m/S 751 mmHg 70%

Morgen, 19 Mai, Mittwoch

Zeit Temperatur Niederschläge Wind Luftdruck Luftfeuchtigkeit
00:00 +17°C° 0 mm 3 m/S 751 mmHg 69%
01:00 +17°C° 0 mm 3 m/S 751 mmHg 70%
02:00 +16°C° 0 mm 3 m/S 751 mmHg 72%
03:00 +14°C° 0 mm 3 m/S 751 mmHg 74%
04:00 +16°C° 0 mm 3 m/S 752 mmHg 73%
05:00 +17°C° 0 mm 3 m/S 752 mmHg 72%
06:00 +18°C° 0 mm 4 m/S 752 mmHg 71%
07:00 +20°C° 0 mm 4 m/S 752 mmHg 64%
08:00 +21°C° 0 mm 5 m/S 752 mmHg 58%
09:00 +23°C° 0 mm 5 m/S 752 mmHg 51%
10:00 +25°C° 0 mm 5 m/S 752 mmHg 48%
11:00 +26°C° 0 mm 5 m/S 752 mmHg 44%
12:00 +27°C° 0 mm 5 m/S 752 mmHg 40%
13:00 +27°C° 0 mm 5 m/S 752 mmHg 39%
14:00 +27°C° 0 mm 5 m/S 751 mmHg 39%
15:00 +27°C° 0 mm 5 m/S 751 mmHg 39%
16:00 +26°C° 0 mm 4 m/S 751 mmHg 44%
17:00 +25°C° 0 mm 4 m/S 751 mmHg 49%
18:00 +23°C° 0 mm 4 m/S 751 mmHg 54%
19:00 +22°C° 0 mm 4 m/S 751 mmHg 60%
20:00 +20°C° 0 mm 4 m/S 751 mmHg 66%
21:00 +18°C° 0 mm 3 m/S 751 mmHg 72%
22:00 +18°C° 0 mm 4 m/S 751 mmHg 72%
23:00 +18°C° 0 mm 4 m/S 751 mmHg 71%

übermorgen, 20 Mai, Donnerstag

Zeit Temperatur Niederschläge Wind Luftdruck Luftfeuchtigkeit
00:00 +18°C° 0 mm 4 m/S 751 mmHg 71%
01:00 +17°C° 0 mm 4 m/S 751 mmHg 73%
02:00 +17°C° 0 mm 4 m/S 751 mmHg 76%
03:00 +16°C° 0 mm 3 m/S 751 mmHg 78%
04:00 +17°C° 0 mm 4 m/S 751 mmHg 75%
05:00 +18°C° 0 mm 4 m/S 751 mmHg 73%
06:00 +19°C° 0 mm 4 m/S 751 mmHg 70%
07:00 +20°C° 0 mm 4 m/S 750 mmHg 63%
08:00 +22°C° 0 mm 5 m/S 750 mmHg 55%
09:00 +25°C° 0 mm 5 m/S 750 mmHg 47%
10:00 +24°C° 0 mm 6 m/S 750 mmHg 45%
11:00 +26°C° 0 mm 6 m/S 750 mmHg 42%
12:00 +27°C° 0 mm 6 m/S 750 mmHg 40%
13:00 +27°C° 0 mm 6 m/S 750 mmHg 40%
14:00 +27°C° 0 mm 6 m/S 749 mmHg 40%
15:00 +27°C° 0 mm 6 m/S 749 mmHg 40%
16:00 +26°C° 0 mm 5 m/S 749 mmHg 43%
17:00 +25°C° 0 mm 5 m/S 749 mmHg 47%
18:00 +23°C° 0 mm 4 m/S 748 mmHg 51%
19:00 +21°C° 0 mm 4 m/S 748 mmHg 55%
20:00 +19°C° 0 mm 4 m/S 748 mmHg 59%
21:00 +17°C° 0 mm 3 m/S 748 mmHg 63%
22:00 +17°C° 0 mm 3 m/S 748 mmHg 65%
23:00 +16°C° 0 mm 3 m/S 747 mmHg 67%

21 Mai, Freitag

Zeit Temperatur Niederschläge Wind Luftdruck Luftfeuchtigkeit
00:00 +14°C° 0 mm 3 m/S 747 mmHg 68%
01:00 +14°C° 0 mm 3 m/S 747 mmHg 70%
02:00 +13°C° 0 mm 3 m/S 747 mmHg 73%
03:00 +13°C° 0 mm 3 m/S 746 mmHg 75%
04:00 +13°C° 0 mm 3 m/S 746 mmHg 74%
05:00 +14°C° 0 mm 3 m/S 746 mmHg 74%
06:00 +16°C° 0 mm 3 m/S 746 mmHg 73%
07:00 +16°C° 0.6 mm 3 m/S 746 mmHg 80%
08:00 +14°C° 0.6 mm 3 m/S 746 mmHg 87%
09:00 +14°C° 0.6 mm 3 m/S 746 mmHg 93%
10:00 +15°C° 0.5 mm 4 m/S 746 mmHg 85%
11:00 +18°C° 0.5 mm 4 m/S 746 mmHg 77%
12:00 +20°C° 0.5 mm 5 m/S 746 mmHg 68%
13:00 +20°C° 0.4 mm 5 m/S 746 mmHg 69%
14:00 +20°C° 0.4 mm 5 m/S 747 mmHg 70%
15:00 +20°C° 0.4 mm 5 m/S 747 mmHg 71%
16:00 +19°C° 0.2 mm 5 m/S 747 mmHg 70%
17:00 +19°C° 0.2 mm 5 m/S 747 mmHg 68%
18:00 +19°C° 0.2 mm 5 m/S 747 mmHg 67%
19:00 +16°C° 0 mm 5 m/S 748 mmHg 71%
20:00 +15°C° 0 mm 4 m/S 748 mmHg 76%
21:00 +14°C° 0 mm 4 m/S 749 mmHg 81%
22:00 +13°C° 0 mm 4 m/S 749 mmHg 84%
23:00 +13°C° 0 mm 4 m/S 749 mmHg 87%

22 Mai, Samstag

Zeit Temperatur Niederschläge Wind Luftdruck Luftfeuchtigkeit
00:00 +12°C° 0 mm 4 m/S 750 mmHg 90%
01:00 +11°C° 0 mm 3 m/S 750 mmHg 91%
02:00 +10°C° 0 mm 3 m/S 751 mmHg 92%
03:00 +10°C° 0 mm 3 m/S 751 mmHg 93%
04:00 +10°C° 0 mm 3 m/S 752 mmHg 90%
05:00 +11°C° 0 mm 3 m/S 752 mmHg 87%
06:00 +11°C° 0 mm 3 m/S 752 mmHg 84%
07:00 +14°C° 0 mm 2 m/S 752 mmHg 78%
08:00 +15°C° 0 mm 2 m/S 752 mmHg 72%
09:00 +16°C° 0 mm 2 m/S 753 mmHg 67%
10:00 +16°C° 0.4 mm 2 m/S 753 mmHg 74%
11:00 +15°C° 0.4 mm 2 m/S 753 mmHg 81%
12:00 +14°C° 0.4 mm 2 m/S 753 mmHg 89%
13:00 +14°C° 1.5 mm 2 m/S 753 mmHg 91%
14:00 +13°C° 1.5 mm 2 m/S 753 mmHg 94%
15:00 +13°C° 1.5 mm 1 m/S 752 mmHg 96%
16:00 +13°C° 4.6 mm 2 m/S 752 mmHg 97%
17:00 +12°C° 4.6 mm 2 m/S 752 mmHg 97%
18:00 +11°C° 4.6 mm 3 m/S 752 mmHg 98%
19:00 +12°C° 3.3 mm 2 m/S 752 mmHg 98%
20:00 +12°C° 3.3 mm 2 m/S 752 mmHg 98%
21:00 +12°C° 3.3 mm 1 m/S 752 mmHg 98%
22:00 +12°C° 0 mm 1 m/S 752 mmHg 98%
23:00 +12°C° 0 mm 2 m/S 752 mmHg 98%

23 Mai, Sonntag

Zeit Temperatur Niederschläge Wind Luftdruck Luftfeuchtigkeit
00:00 +12°C° 0 mm 2 m/S 752 mmHg 98%
01:00 +12°C° 0 mm 2 m/S 753 mmHg 98%
02:00 +12°C° 0 mm 2 m/S 753 mmHg 98%
03:00 +12°C° 0 mm 2 m/S 753 mmHg 97%
04:00 +12°C° 0 mm 2 m/S 753 mmHg 96%
05:00 +11°C° 0 mm 3 m/S 753 mmHg 95%
06:00 +12°C° 0 mm 3 m/S 754 mmHg 94%
07:00 +13°C° 0 mm 3 m/S 753 mmHg 93%
08:00 +14°C° 0 mm 4 m/S 753 mmHg 92%
09:00 +14°C° 0 mm 4 m/S 753 mmHg 91%
10:00 +15°C° 0.1 mm 4 m/S 753 mmHg 89%
11:00 +17°C° 0.1 mm 4 m/S 752 mmHg 88%
12:00 +18°C° 0.1 mm 3 m/S 752 mmHg 86%
13:00 +19°C° 0.1 mm 4 m/S 752 mmHg 82%
14:00 +21°C° 0.1 mm 4 m/S 751 mmHg 78%
15:00 +22°C° 0.1 mm 4 m/S 751 mmHg 74%
16:00 +22°C° 0.1 mm 4 m/S 751 mmHg 76%
17:00 +21°C° 0.1 mm 4 m/S 750 mmHg 78%
18:00 +21°C° 0.1 mm 5 m/S 750 mmHg 79%
19:00 +20°C° 0 mm 4 m/S 749 mmHg 81%
20:00 +20°C° 0 mm 4 m/S 749 mmHg 83%
21:00 +19°C° 0 mm 4 m/S 749 mmHg 85%
22:00 +19°C° 0 mm 4 m/S 748 mmHg 86%
23:00 +18°C° 0 mm 4 m/S 748 mmHg 86%
Mehr zeigen

Wir brauchen deine Erlaubnis

Meteoprog und unser Service Anbieter werden persönliche Daten aufbewahren, so wie Cookies, Geräte Bezeichnung oder ähnliche Technologien von deinem Gerät und Prozess, so wie Persönliche Daten Inhalte und Werbungen, genauso wie social Media und den Verkehr zu analysieren.

  • Aufbewahrung und/oder Zugang zu deiner Geräte Informationen.

    Cookies, Geräte Bezeichnung oder andere Informationen, können aufbewahrt oder Zugang zu deinem Gerät erhalten, für den Grund, der oben angegeben wird.

  • Personalisierte Werbung und Inhalte, Messungen, Einblick in das Publikum und Produkt Entwicklung.

    Werbungen und Inhalte können personalisiert werden, basierend auf ein Profil. Mehr Daten können besser personalisierte Werbungen und Inhalte hinzufügen. Werbung und Inhalte können gezeigt und gemessen werden. Einblicke über das Publikum, welche die Werbung gesehen haben und den Inhalt, können abgeleitet werden. So wie Daten können genutzt werden, um es zu verbessern oder die Benutzer Erfahrung zu verbessern das System und die Software.

Wenn du “Ich stimme zu” klickst, erlaubst du uns, die Cookies zu benutzen die Geräte Bezeichnung, den Web oder ähnliche Technologien zu benutzen. Deine Settings, können in deinem Gerät bei deinem Browser geändert werden.

Für den bestimmten Zweck, berechtigten Interessen beruhen darauf, mehr als auf den Inhalt. Du kannst mehr darüber in unseren Privaten und Cookie Politik lesen.